Halmstad Swedish Air Forc, Sweden

6:48 PM CEST on September 27, 2016 (GMT +0200)
Halmstad Air Base

Weather History for ESMT - October, 2012

Change the Weather History Date:

Friday, October 12, 2012

  Actual Average Record
Temperature  
Mean Temperature 40 °F -  
Max Temperature 51 °F - - ()
Min Temperature 30 °F - - ()
Degree Days  
Heating Degree Days 24    
Moisture  
Dew Point 34 °F    
Average Humidity 76    
Maximum Humidity 93    
Minimum Humidity 50    
Precipitation  
Precipitation 0.00 in - - ()
Sea Level Pressure  
Sea Level Pressure 29.94 in    
Wind  
Wind Speed 5 mph ()    
Max Wind Speed 10 mph    
Max Gust Speed -    
Visibility 6.2 miles    
Events      
T = Trace of Precipitation, MM = Missing Value Source: Averaged Metar Reports

Daily Weather History Graph

Daily Weather History Graph

Search for Another Location

Airport or City:

Trip Planner

Search our weather history database for the weather conditions in past years. The results will help you decide how hot, cold, wet, or windy it might be!

Date:

Astronomy

Oct. 12, 2012 Rise Set
Actual Time 7:35 AM CEST 6:13 PM CEST
Civil Twilight 6:57 AM CEST 6:51 PM CEST
Nautical Twilight 6:13 AM CEST 7:35 PM CEST
Astronomical Twilight 5:29 AM CEST 8:19 PM CEST
Moon 3:24 AM CEST (10/12) 4:41 PM CEST (10/12)
Length of Visible Light 11h 54m
Length of Day
10h 38m
Waning Crescent, 12% of the Moon is Illuminated
Oct 12
Waning Crescent
Oct 15
New
Oct 22
First Quarter
Oct 29
Full
Nov 7
Last Quarter

Hourly Weather History & Observations

Time (CEST) Temp. Windchill Dew Point Humidity Pressure Visibility Wind Dir Wind Speed Gust Speed Precip Events Conditions
12:20 AM 35.6 °F - 33.8 °F 93% 29.98 in 6.2 mi Variable 2.3 mph - N/A   Unknown
12:50 AM 35.6 °F 30.7 °F 33.8 °F 93% 29.98 in 6.2 mi East 5.8 mph - N/A   Unknown
1:20 AM 35.6 °F 30.7 °F 33.8 °F 93% 29.98 in 6.2 mi ENE 5.8 mph - N/A   Unknown
3:20 AM 32.0 °F 25.6 °F 30.2 °F 93% 29.98 in 6.2 mi NE 6.9 mph - N/A   Unknown
4:20 AM 33.8 °F 29.6 °F 32.0 °F 93% 29.98 in 6.2 mi NE 4.6 mph - N/A   Unknown
5:20 AM 32.0 °F 27.5 °F 30.2 °F 93% 29.98 in 6.2 mi NE 4.6 mph - N/A   Unknown
5:50 AM 32.0 °F 25.6 °F 30.2 °F 93% 29.98 in 6.2 mi NE 6.9 mph - N/A   Unknown
6:20 AM 32.0 °F 25.6 °F 30.2 °F 93% 29.95 in - NE 6.9 mph - N/A   Clear
7:20 AM 32.0 °F 25.6 °F 30.2 °F 93% 29.95 in - NE 6.9 mph - N/A   Clear
7:50 AM 32.0 °F 25.6 °F 30.2 °F 93% 29.95 in - NE 6.9 mph - N/A   Clear
8:20 AM 30.2 °F 25.4 °F 28.4 °F 93% 29.95 in - NE 4.6 mph - N/A   Clear
8:50 AM 33.8 °F 30.8 °F 32.0 °F 93% 29.95 in - ENE 3.5 mph - N/A   Clear
9:20 AM 33.8 °F 29.6 °F 32.0 °F 93% 29.98 in - NE 4.6 mph - N/A   Clear
9:50 AM 39.2 °F 35.0 °F 35.6 °F 87% 29.98 in - NE 5.8 mph - N/A   Clear
10:20 AM 41.0 °F 39.0 °F 37.4 °F 87% 29.98 in - NE 3.5 mph - N/A   Clear
11:20 AM 46.4 °F 43.5 °F 39.2 °F 76% 29.98 in - ENE 5.8 mph - N/A   Clear
12:20 PM 50.0 °F - 39.2 °F 66% 29.95 in - East 5.8 mph - N/A   Clear
12:50 PM 50.0 °F - 35.6 °F 58% 29.95 in - ESE 6.9 mph - N/A   Clear
1:20 PM 50.0 °F - 37.4 °F 62% 29.95 in - ESE 6.9 mph - N/A   Clear
1:50 PM 50.0 °F - 35.6 °F 58% 29.95 in - SE 8.1 mph - N/A   Clear
2:20 PM 50.0 °F - 35.6 °F 58% 29.95 in - SE 6.9 mph - N/A   Clear
2:50 PM 50.0 °F - 35.6 °F 58% 29.92 in - SE 6.9 mph - N/A   Clear
3:20 PM 51.8 °F - 35.6 °F 54% 29.92 in - SE 6.9 mph - N/A   Clear
3:50 PM 51.8 °F - 33.8 °F 50% 29.92 in - SE 8.1 mph - N/A   Clear
4:20 PM 51.8 °F - 35.6 °F 54% 29.92 in 6.2 mi ESE 6.9 mph - N/A   Partly Cloudy
4:50 PM 50.0 °F - 35.6 °F 58% 29.92 in 6.2 mi East 5.8 mph - N/A   Partly Cloudy
5:20 PM 50.0 °F - 35.6 °F 58% 29.89 in 6.2 mi East 5.8 mph - N/A   Scattered Clouds
6:20 PM 46.4 °F 43.5 °F 35.6 °F 66% 29.92 in 6.2 mi ENE 5.8 mph - N/A   Partly Cloudy
7:20 PM 44.6 °F 40.7 °F 35.6 °F 71% 29.92 in - ENE 6.9 mph - N/A   Clear
9:20 PM 41.0 °F 35.2 °F 33.8 °F 76% 29.92 in 6.2 mi ENE 9.2 mph - N/A   Unknown
9:50 PM 41.0 °F 36.4 °F 32.0 °F 70% 29.89 in 6.2 mi ENE 6.9 mph - N/A   Unknown
10:20 PM 41.0 °F 35.8 °F 32.0 °F 70% 29.89 in 6.2 mi ENE 8.1 mph - N/A   Unknown
10:50 PM 41.0 °F 35.8 °F 32.0 °F 70% 29.89 in 6.2 mi ENE 8.1 mph - N/A   Partly Cloudy
11:20 PM 41.0 °F 34.7 °F 32.0 °F 70% 29.89 in 6.2 mi ENE 10.4 mph - N/A   Unknown
11:50 PM 41.0 °F 35.2 °F 33.8 °F 76% 29.89 in 6.2 mi ENE 9.2 mph - N/A   Partly Cloudy